Terminal Aerodrome Forecast
Issued by NWS Houston/Galveston, TX

Home | Current Version | Previous Version | Text Only | Print | Product List | Glossary On
Versions: 1 2 3 4 5 6 7 8 9 10 11 12 13 14 15 16 17 18 19 20 21 22 23 24 25 26 27 28 29 30 31 32 33 34 35 36 37 38 39 40
000
FTUS44 KHGX 231127
TAFGLS
TAF
KGLS 231127Z 2312/2412 01007KT P6SM SCT010 OVC015
     FM232200 10008KT P6SM VCSH BKN025
     FM240200 32006KT 6SM -TSRA OVC025CB
     FM240600 34013KT P6SM BKN050=

USA.gov is the U.S. government's official web portal to all federal, state and local government web resources and services.